Miscellaneous Local Product
Issued by NWS Hastings, NE

Home | Current Version | Previous Version | Graphics & Text | Print | Product List | Glossary On
Versions: 1 2 3 4 5 6 7 8 9 10 11 12 13 14 15 16 17 18 19 20 21 22 23 24 25 26 27 28 29 30 31 32 33 34 35 36 37 38 39 40 41 42 43 44 45 46 47 48 49 50
000
AXUS43 KGID 252202
MISGRI

GID CWA HOURLY WEATHER ROUNDUP
NATIONAL WEATHER SERVICE HASTINGS NE
400 PM CST SUN JAN 25 2015

NOTE: "FAIR" INDICATES FEW OR NO CLOUDS BELOW 12,000 FEET WITH NO
SIGNIFICANT WEATHER AND/OR OBSTRUCTIONS TO VISIBILITY.

...SOUTH CENTRAL NEBRASKA...

CITY           SKY/WX    TMP DP  RH WIND       PRES   REMARKS
GRAND ISLAND   CLOUDY    41  29  62 NW15      30.09R
HASTINGS       CLOUDY    43  27  53 N18       30.08R
KEARNEY        MOSUNNY   45  28  53 N15       30.08R
ORD            CLOUDY    41  28  60 NW13      30.06R
YORK           CLOUDY    41  32  70 N17       30.06R
AURORA         CLOUDY    41  33  73 N10       30.07R
LEXINGTON      SUNNY     48  28  46 NW13      30.05F
HOLDREGE       MOSUNNY   46  26  45 N13G22    30.07R
HEBRON         CLOUDY    42  29  58 N14G20    30.06R

...NEBRASKA PANHANDLE...

CITY           SKY/WX    TMP DP  RH WIND       PRES   REMARKS
CHADRON        CLOUDY    52  36  54 CALM      30.00F
ALLIANCE       CLOUDY    45  36  70 W12       30.03R
SCOTTSBLUFF    MOSUNNY   54  34  46 NW5       30.05F
SIDNEY         MOSUNNY   54  31  41 NW14      30.07S

...WESTERN AND NORTH CENTRAL NEBRASKA...

CITY           SKY/WX    TMP DP  RH WIND       PRES   REMARKS
VALENTINE      SUNNY     45  26  47 NW14      30.02F
AINSWORTH      MOSUNNY   40  29  64 N8        30.03S WCI  35
ONEILL         CLOUDY    40  34  77 NW9       30.05R WCI  34
BROKEN BOW     SUNNY     45  29  53 NW12      30.06R
IMPERIAL       SUNNY     54  28  36 NW17      30.06R
NORTH PLATTE   SUNNY     52  17  25 NW15      30.05R
MCCOOK         SUNNY     55  19  24 N16       30.05S

...EASTERN NEBRASKA...

CITY           SKY/WX    TMP DP  RH WIND       PRES   REMARKS
NORFOLK        CLOUDY    39  32  76 NW10      30.05R WCI  32
SO SIOUX CITY  CLOUDY    37  33  85 NW9       30.05R WCI  30
TEKAMAH        CLOUDY    41  32  70 N12       30.06R
COLUMBUS       CLOUDY    39  28  65 NW12      30.08R WCI  32
ALBION         CLOUDY    40  33  76 NW10      30.06R WCI  33
OMAHA EPPLEY   PTSUNNY   40  31  70 N16       30.04R WCI  31
OFFUTT AFB     CLOUDY    41  28  59 N10       30.04R
MILLARD        CLOUDY    41  29  62 NW13G18   30.03R
LINCOLN        CLOUDY    40  31  70 N14       30.08R WCI  32
NEBRASKA CITY  CLOUDY    40  28  63 N13       30.02R WCI  33
BEATRICE       CLOUDY    39  31  73 N16       30.05R WCI  30
FALLS CITY     CLOUDY    40  31  70 N13G20    30.02R WCI  32

...NORTHERN KANSAS...

CITY           SKY/WX    TMP DP  RH WIND       PRES   REMARKS
GOODLAND       SUNNY     55  29  36 N15G23    30.09R
HILL CITY      SUNNY     53  23  31 N17       30.09R
NORTON         CLEAR     50  19  29 NW18      30.06
PHILLIPSBURG   SUNNY     52  27  37 N14G20    30.08R
SMITH CENTER   MOSUNNY   46  27  46 N18G24    30.08R
BELOIT         MOSUNNY   48  28  46 N20       30.07R
HAYS           SUNNY     52  25  35 N20G28    30.08R
RUSSELL        SUNNY     51  25  36 N23G29    30.06R
CONCORDIA      CLOUDY    43  31  62 N21G31    30.07R
SALINA         MOSUNNY   49  30  48 N25G33    30.07R
TOPEKA         CLOUDY    41  31  67 NW21G26   30.04R



USA.gov is the U.S. government's official web portal to all federal, state and local government web resources and services.